M8FSI-13 Weather Reports


time (UTC)temp
C
wind
direction
speed
KPH
gust
KPH
rain 1hr
cm
rain 24hr
cm
rain mn
cm
humidity
%
barometer
mb
20260505183520 15 0.0 3.2 0.00 0.00 0.00 66 1012.0
20260505182520 15 315 1.6 4.8 0.00 0.00 0.00 65 1011.8
20260505181535 15 0.0 3.2 0.00 0.00 0.00 65 1011.8
20260505180519 15 0.0 3.2 0.00 0.05 0.00 64 1011.8
20260505175535 15 0.0 3.2 0.00 0.05 0.00 63 1011.9
20260505174521 15 23 1.6 3.2 0.00 0.05 0.00 63 1011.9
20260505173559 15 315 1.6 6.4 0.00 0.05 0.00 63 1011.9
20260505172601 15 315 1.6 6.4 0.00 0.05 0.00 62 1011.9
20260505171520 15 0.0 3.2 0.00 0.05 0.00 62 1011.9
20260505170534 15 315 1.6 3.2 0.00 0.05 0.00 61 1011.9
20260505165534 15 293 1.6 6.4 0.00 0.05 0.00 61 1012.1
20260505164519 15 0 1.6 4.8 0.00 0.05 0.00 60 1012.1
20260505163605 16 23 3.2 9.7 0.00 0.05 0.00 59 1011.9
20260505162555 16 0 1.6 4.8 0.00 0.05 0.00 58 1011.9
20260505161520 16 45 3.2 9.7 0.00 0.05 0.00 56 1011.9
20260505160521 16 0 1.6 4.8 0.00 0.05 0.00 57 1012.0
20260505152519 16 315 1.6 9.7 0.00 0.05 0.00 57 1012.0
20260505151519 16 315 1.6 6.4 0.00 0.05 0.00 57 1012.0
20260505150601 16 23 1.6 6.4 0.00 0.05 0.00 57 1012.2
20260505140519 16 23 3.2 9.7 0.00 0.05 0.00 59 1012.3
20260505124520 16 68 4.8 9.7 0.00 0.05 0.00 61 1012.7
20260505123519 15 338 4.8 9.7 0.00 0.05 0.00 63 1012.7
20260505122519 15 315 4.8 11.3 0.00 0.05 0.00 63 1012.8
20260505121524 15 315 3.2 9.7 0.00 0.05 0.00 64 1012.9
20260505120554 15 293 3.2 4.8 0.00 0.05 0.00 64 1012.9
20260505115534 15 338 1.6 4.8 0.00 0.05 0.00 65 1012.8
20260505114614 15 293 3.2 8.0 0.00 0.05 0.00 65 1012.9
20260505113535 15 23 4.8 14.5 0.00 0.05 0.00 64 1013.0
20260505112520 15 45 3.2 12.9 0.00 0.05 0.00 64 1012.9
20260505111519 15 0 3.2 11.3 0.00 0.05 0.00 63 1013.1
20260505110539 15 68 3.2 9.7 0.00 0.05 0.00 63 1013.1
20260505101539 16 338 6.4 14.5 0.00 0.05 0.00 58 1013.0
20260505100539 15 45 6.4 14.5 0.00 0.05 0.00 59 1013.0
20260505095533 15 315 6.4 16.1 0.00 0.05 0.00 61 1012.9
20260505094520 15 315 6.4 19.3 0.00 0.05 0.00 62 1013.1
20260505093519 15 23 6.4 14.5 0.00 0.05 0.00 61 1012.9
20260505092519 15 315 4.8 14.5 0.00 0.05 0.00 64 1013.1
20260505091534 15 270 3.2 8.0 0.00 0.05 0.00 65 1013.2
20260505090519 14 338 3.2 11.3 0.00 0.05 0.00 67 1013.5
20260505085535 14 315 3.2 12.9 0.00 0.05 0.00 68 1013.3
20260505084520 13 45 4.8 14.5 0.00 0.05 0.00 69 1013.5
20260505083519 13 45 4.8 14.5 0.00 0.05 0.00 70 1013.5
20260505082519 13 45 8.0 16.1 0.00 0.05 0.00 71 1013.5
20260505081557 13 45 8.0 17.7 0.00 0.05 0.00 70 1013.4
20260505080524 13 45 6.4 19.3 0.00 0.05 0.00 72 1013.5
20260505075539 13 45 4.8 17.7 0.00 0.05 0.00 74 1013.4
20260505074519 13 68 3.2 20.9 0.00 0.05 0.00 76 1013.5
20260505073533 13 45 6.4 16.1 0.00 0.05 0.00 77 1013.5
20260505072533 12 45 3.2 9.7 0.00 0.05 0.00 80 1013.4
20260505071533 12 45 4.8 16.1 0.00 0.05 0.00 80 1013.5
20260505070519 12 45 3.2 12.9 0.00 0.05 0.00 83 1013.5
20260505065519 12 45 4.8 11.3 0.00 0.05 0.00 84 1013.6
20260505064518 12 315 1.6 4.8 0.00 0.05 0.00 85 1013.8
20260505063524 12 68 3.2 8.0 0.00 0.05 0.00 85 1014.0
20260505062519 12 45 1.6 3.2 0.00 0.05 0.00 86 1013.8
20260505061539 12 45 1.6 4.8 0.00 0.05 0.00 86 1013.7
20260505060519 11 23 3.2 8.0 0.00 0.05 0.00 86 1013.8
20260505055520 11 45 3.2 8.0 0.00 0.05 0.00 86 1013.8
20260505054557 11 45 4.8 9.7 0.00 0.05 0.00 86 1013.8
20260505053539 11 45 3.2 6.4 0.00 0.05 0.00 87 1013.8
20260505052519 11 45 4.8 11.3 0.00 0.05 0.00 87 1013.8
20260505051519 11 45 3.2 11.3 0.00 0.05 0.00 88 1013.7
20260505050519 11 68 1.6 4.8 0.00 0.05 0.00 89 1013.7
20260505041533 11 45 4.8 11.3 0.00 0.05 0.00 87 1013.7
20260505040523 11 45 4.8 11.3 0.00 0.05 0.00 87 1013.7
20260505035538 11 45 4.8 9.7 0.00 0.05 0.00 87 1013.7
20260505034518 12 68 3.2 6.4 0.00 0.05 0.00 87 1014.1
20260505033518 12 68 4.8 9.7 0.00 0.05 0.00 88 1014.1
20260505032533 12 68 3.2 4.8 0.00 0.05 0.00 88 1014.1
20260505031519 12 68 1.6 4.8 0.00 0.05 0.00 88 1014.2
20260505030538 12 68 3.2 8.0 0.00 0.05 0.00 87 1014.1
20260505025523 12 45 3.2 6.4 0.00 0.05 0.00 88 1014.1
20260505024518 12 45 1.6 4.8 0.00 0.05 0.00 88 1014.1
20260505023630 12 45 3.2 6.4 0.00 0.05 0.00 88 1014.1
20260505022600 12 45 3.2 6.4 0.00 0.05 0.00 88 1014.1
20260505021518 12 68 3.2 6.4 0.00 0.05 0.00 88 1014.2
20260505020519 12 68 3.2 6.4 0.00 0.05 0.00 88 1014.2
20260505015520 12 68 1.6 3.2 0.00 0.05 0.00 88 1014.3
20260505014519 12 68 1.6 1.6 0.00 0.05 0.00 88 1014.5
20260505013518 12 45 1.6 3.2 0.00 0.05 0.00 88 1014.5
20260505012533 12 68 1.6 4.8 0.00 0.05 0.00 88 1014.6
20260505011538 12 68 4.8 8.0 0.00 0.05 0.00 88 1014.5
20260505010518 12 45 3.2 6.4 0.00 0.05 0.00 88 1014.6
20260505005520 12 45 1.6 6.4 0.00 0.05 0.00 89 1014.4
20260505004518 12 45 1.6 3.2 0.00 0.05 0.00 89 1014.9
20260505003518 12 68 1.6 3.2 0.00 0.05 0.00 90 1014.9
20260505002519 12 0.0 3.2 0.00 0.05 0.00 90 1014.8
20260505001518 12 45 1.6 3.2 0.00 0.05 0.00 90 1014.8
20260505000523 12 135 1.6 4.8 0.00 0.05 0.00 91 1014.9
20260504235518 12 225 1.6 1.6 0.00 0.05 0.00 91 1015.1
20260504234533 12 225 1.6 1.6 0.00 0.05 0.00 91 1015.0
20260504233559 12 225 1.6 3.2 0.00 0.05 0.00 90 1015.2
20260504232520 12 0.0 1.6 0.00 0.05 0.00 90 1015.1
20260504231551 12 90 1.6 3.2 0.00 0.05 0.00 91 1014.9
20260504230519 12 0.0 1.6 0.00 0.05 0.00 91 1014.9
20260504225600 12 0.0 1.6 0.00 0.05 0.05 91 1014.9
20260504224554 12 90 1.6 1.6 0.00 0.05 0.05 91 1015.0
20260504223520 12 0.0 0.0 0.00 0.05 0.05 91 1015.1
20260504222534 12 0.0 0.0 0.00 0.05 0.05 91 1015.1
20260504221540 12 0.0 1.6 0.00 0.05 0.05 91 1015.2
20260504220519 12 0.0 1.6 0.00 0.05 0.05 91 1015.3
20260504215520 12 135 1.6 1.6 0.00 0.05 0.05 91 1015.4
20260504214600 12 0.0 1.6 0.00 0.05 0.05 90 1015.3
20260504213521 12 0.0 0.0 0.00 0.05 0.05 90 1015.4
20260504212518 12 225 1.6 1.6 0.00 0.05 0.05 90 1015.4
20260504211541 12 225 1.6 1.6 0.00 0.05 0.05 89 1015.3
20260504210535 12 0.0 1.6 0.00 0.05 0.05 89 1015.3
20260504205535 12 90 3.2 3.2 0.00 0.05 0.05 88 1015.3
20260504204520 13 90 1.6 3.2 0.00 0.05 0.05 88 1015.2
20260504203519 13 113 1.6 1.6 0.00 0.05 0.05 88 1015.4
20260504202533 13 0.0 1.6 0.00 0.05 0.05 88 1015.4
20260504201519 13 0.0 1.6 0.00 0.05 0.05 87 1015.3
20260504200519 13 0.0 1.6 0.00 0.05 0.05 88 1015.1
20260504195539 13 0.0 1.6 0.00 0.05 0.05 87 1015.1
20260504194524 13 0.0 1.6 0.00 0.05 0.05 87 1015.0
20260504193535 13 135 1.6 3.2 0.00 0.05 0.05 87 1015.0
20260504192519 13 135 1.6 3.2 0.00 0.05 0.05 87 1014.9
20260504191519 13 158 3.2 4.8 0.00 0.05 0.05 87 1014.7
20260504190519 13 158 1.6 3.2 0.05 0.05 0.05 86 1014.9
20260504185548 13 180 3.2 4.8 0.05 0.05 0.05 86 1014.9
20260504184524 13 158 3.2 4.8 0.05 0.05 0.05 86 1014.8